DW8284 Weather Reports


time (UTC)temp
C
wind
direction
speed
KPH
gust
KPH
rain 1hr
cm
rain 24hr
cm
rain mn
cm
humidity
%
barometer
mb
20260504110540 10 0 0.0 3.2 0.00 0.00 0.00 89 1005.4
20260504100540 10 0 0.0 3.2 0.00 0.00 0.00 87 1005.8
20260504090117 11 0 0.0 1.6 0.00 0.00 0.00 86 1005.9
20260504081548 11 162 0.0 3.2 0.00 0.00 0.00 84 1006.2
20260504081039 11 0 0.0 3.2 0.00 0.00 0.00 84 1006.2
20260504080537 11 0 0.0 3.2 0.00 0.00 0.00 84 1006.3
20260504050540 13 0 0.0 3.2 0.00 0.00 0.00 74 1007.5
20260504045542 13 0 0.0 1.6 0.00 0.00 0.00 75 1007.6
20260504045039 13 178 0.0 1.6 0.00 0.00 0.00 74 1007.7
20260504044600 13 0 0.0 1.6 0.00 0.00 0.00 74 1007.8
20260504044041 13 0 0.0 3.2 0.00 0.00 0.00 74 1007.8
20260504043539 13 0 0.0 3.2 0.00 0.00 0.00 73 1007.7
20260504043053 14 0 0.0 3.2 0.00 0.00 0.00 72 1007.8
20260504042539 14 0 0.0 1.6 0.00 0.00 0.00 73 1007.9
20260504042038 14 0 0.0 1.6 0.00 0.00 0.00 72 1007.9
20260504041549 14 0 0.0 3.2 0.00 0.00 0.00 72 1007.8
20260504041039 14 0 0.0 3.2 0.00 0.00 0.00 72 1007.9
20260504040538 14 0 0.0 3.2 0.00 0.00 0.00 72 1007.8
20260504040103 15 0 0.0 3.2 0.00 0.00 0.00 70 1007.9
20260504035540 15 178 0.0 3.2 0.00 0.00 0.00 70 1007.8
20260504035039 15 0 0.0 1.6 0.00 0.00 0.00 70 1007.9
20260504034553 15 0 0.0 1.6 0.00 0.00 0.00 70 1007.9
20260504034040 15 0 0.0 3.2 0.00 0.00 0.00 71 1008.0
20260504033538 15 0 0.0 3.2 0.00 0.00 0.00 70 1008.0
20260504033056 15 178 0.0 3.2 0.00 0.00 0.00 71 1008.2
20260504032538 15 0 0.0 3.2 0.00 0.00 0.00 71 1008.1
20260504032039 15 0 0.0 3.2 0.00 0.00 0.00 70 1008.2
20260504031553 15 0 0.0 3.2 0.00 0.00 0.00 70 1008.1
20260504031038 15 0 0.0 3.2 0.00 0.00 0.00 70 1008.1
20260504030540 15 0 0.0 3.2 0.00 0.00 0.00 69 1008.2
20260504030047 16 0 0.0 3.2 0.00 0.00 0.00 69 1008.2
20260504025538 16 178 0.0 3.2 0.00 0.00 0.00 68 1008.0
20260504025039 16 178 0.0 3.2 0.00 0.00 0.00 67 1008.1
20260504024548 16 0 0.0 3.2 0.00 0.00 0.00 67 1008.1
20260504024038 16 0 0.0 3.2 0.00 0.00 0.00 67 1008.1
20260504023540 16 178 0.0 3.2 0.00 0.00 0.00 67 1008.1
20260504023047 16 0 0.0 3.2 0.00 0.00 0.00 67 1008.0
20260504022540 16 0 0.0 3.2 0.00 0.00 0.00 67 1008.0
20260504022039 16 0 0.0 3.2 0.00 0.00 0.00 67 1008.0
20260504021547 16 0 0.0 3.2 0.00 0.00 0.00 67 1008.0
20260504021044 16 0 0.0 3.2 0.00 0.00 0.00 67 1008.0
20260504020541 16 0 0.0 1.6 0.00 0.00 0.00 67 1008.0
20260504020047 16 0 0.0 1.6 0.00 0.00 0.00 67 1008.0
20260504015539 16 0 0.0 1.6 0.00 0.00 0.00 66 1008.0
20260504015042 16 0 0.0 1.6 0.00 0.00 0.00 65 1008.0
20260504014555 16 0 0.0 3.2 0.00 0.00 0.00 65 1008.0
20260504014037 16 0 0.0 3.2 0.00 0.00 0.00 65 1007.9
20260504013538 16 0 0.0 3.2 0.00 0.00 0.00 65 1007.9
20260504013051 16 0 0.0 3.2 0.00 0.00 0.00 64 1007.9
20260504012544 17 0 0.0 3.2 0.00 0.00 0.00 64 1007.8
20260504012040 17 0 0.0 3.2 0.00 0.00 0.00 64 1007.8
20260504011551 17 238 0.0 1.6 0.00 0.00 0.00 62 1007.8
20260504011037 17 0 0.0 1.6 0.00 0.00 0.00 62 1007.8
20260504010539 17 0 0.0 1.6 0.00 0.00 0.00 62 1007.6
20260504010057 17 0 0.0 3.2 0.00 0.00 0.00 62 1007.7
20260504005541 17 0 0.0 3.2 0.00 0.00 0.00 62 1007.7
20260504005039 18 0 0.0 3.2 0.00 0.00 0.00 61 1007.7
20260504004548 18 0 0.0 1.6 0.00 0.00 0.00 60 1007.7
20260504004040 18 0 0.0 3.2 0.00 0.00 0.00 60 1007.8
20260504003540 18 0 0.0 3.2 0.00 0.00 0.00 60 1007.7
20260504003046 18 0 0.0 3.2 0.00 0.00 0.00 59 1007.7
20260504002540 18 0 0.0 3.2 0.00 0.00 0.00 58 1007.7
20260504002038 18 158 0.0 3.2 0.00 0.00 0.00 58 1007.7
20260504001609 18 247 0.0 3.2 0.00 0.00 0.00 59 1007.8
20260504001040 18 178 0.0 3.2 0.00 0.00 0.00 58 1007.7
20260504000540 18 205 0.0 3.2 0.00 0.00 0.00 58 1007.7
20260504000052 19 0 0.0 3.2 0.00 0.00 0.00 57 1007.7
20260503235540 19 51 0.0 3.2 0.00 0.00 0.00 56 1007.8
20260503235039 19 158 0.0 3.2 0.00 0.00 0.00 56 1007.8
20260503234555 19 190 0.0 3.2 0.00 0.00 0.00 57 1007.7
20260503234041 19 196 0.0 3.2 0.00 0.00 0.00 57 1007.8
20260503233538 19 0 0.0 3.2 0.00 0.00 0.00 56 1007.9
20260503233046 19 178 0.0 4.8 0.00 0.00 0.00 56 1007.8
20260503232542 19 0 0.0 4.8 0.00 0.00 0.00 55 1007.8
20260503232038 19 178 0.0 4.8 0.00 0.00 0.00 55 1007.9
20260503231549 19 239 0.0 4.8 0.00 0.00 0.00 55 1007.9
20260503231043 19 168 0.0 4.8 0.00 0.00 0.00 55 1007.9
20260503230540 19 0 0.0 4.8 0.00 0.00 0.00 54 1007.9
20260503230048 19 0 0.0 4.8 0.00 0.00 0.00 55 1008.0
20260503225540 19 0 0.0 4.8 0.00 0.00 0.00 55 1008.0
20260503225039 19 0 0.0 6.4 0.00 0.00 0.00 53 1008.0
20260503224551 19 250 0.0 6.4 0.00 0.00 0.00 53 1008.0
20260503224039 19 178 0.0 3.2 0.00 0.00 0.00 53 1008.1
20260503223542 19 162 0.0 3.2 0.00 0.00 0.00 54 1008.2
20260503223052 19 153 0.0 3.2 0.00 0.00 0.00 55 1008.1
20260503222539 19 0 0.0 3.2 0.00 0.00 0.00 52 1008.2
20260503222038 19 170 0.0 6.4 0.00 0.00 0.00 53 1008.4
20260503221551 19 0 0.0 6.4 0.00 0.00 0.00 52 1008.4
20260503221041 19 340 0.0 6.4 0.00 0.00 0.00 51 1008.4
20260503220539 19 0 1.6 4.8 0.00 0.00 0.00 51 1008.5
20260503220109 19 0 0.0 4.8 0.00 0.00 0.00 51 1008.4
20260503215538 19 0 0.0 6.4 0.00 0.00 0.00 51 1008.5
20260503215039 19 178 1.6 9.7 0.00 0.00 0.00 50 1008.5
20260503214552 19 271 0.0 9.7 0.00 0.00 0.00 51 1008.4
20260503214041 19 178 1.6 9.7 0.00 0.00 0.00 50 1008.5
20260503213539 19 205 1.6 11.3 0.00 0.00 0.00 51 1008.5
20260503213049 19 178 1.6 11.3 0.00 0.00 0.00 51 1008.4
20260503212539 19 239 1.6 11.3 0.00 0.00 0.00 54 1008.5
20260503212041 19 265 1.6 8.0 0.00 0.00 0.00 50 1008.5
20260503211605 19 178 1.6 6.4 0.00 0.00 0.00 50 1008.5
20260503211042 19 243 0.0 9.7 0.00 0.00 0.00 50 1008.4
20260503210539 19 178 1.6 11.3 0.00 0.00 0.00 50 1008.5
20260503210057 19 165 1.6 12.9 0.00 0.00 0.00 49 1008.6
20260503205538 20 265 1.6 12.9 0.00 0.00 0.00 49 1008.7
20260503205040 20 188 1.6 8.0 0.00 0.00 0.00 49 1008.8
20260503204555 19 178 1.6 8.0 0.00 0.00 0.00 51 1008.6
20260503204037 18 0 1.6 8.0 0.00 0.00 0.00 50 1008.7
20260503203539 18 178 1.6 11.3 0.00 0.00 0.00 50 1008.7
20260503203056 18 0 1.6 11.3 0.00 0.00 0.00 50 1008.9
20260503202539 18 296 1.6 9.7 0.00 0.00 0.00 50 1009.2
20260503202039 18 0 1.6 9.7 0.00 0.00 0.00 49 1009.2
20260503201550 18 178 3.2 12.9 0.00 0.00 0.00 48 1009.2
20260503201039 19 221 1.6 14.5 0.00 0.00 0.00 48 1009.4
20260503200540 20 193 3.2 14.5 0.00 0.00 0.00 47 1009.4
20260503200049 20 0 1.6 16.1 0.00 0.00 0.00 47 1009.4
20260503195539 20 0 1.6 17.7 0.00 0.00 0.00 46 1009.5
20260503195038 20 175 3.2 17.7 0.00 0.00 0.00 45 1009.8
20260503194554 20 175 3.2 14.5 0.00 0.00 0.00 45 1009.6
20260503194040 20 178 3.2 14.5 0.00 0.00 0.00 45 1009.3
20260503193540 20 173 3.2 14.5 0.00 0.00 0.00 44 1009.5
20260503193102 20 221 3.2 14.5 0.00 0.00 0.00 46 1009.6
20260503192538 19 265 3.2 11.3 0.00 0.00 0.00 47 1009.8
20260503192043 19 84 3.2 11.3 0.00 0.00 0.00 45 1009.4
20260503191555 19 178 1.6 12.9 0.00 0.00 0.00 46 1009.8
20260503191039 19 178 3.2 12.9 0.00 0.00 0.00 45 1010.0
20260503190540 19 200 3.2 11.3 0.00 0.00 0.00 44 1010.0
20260503190048 19 178 1.6 11.3 0.00 0.00 0.00 47 1009.9
20260503185537 18 162 1.6 11.3 0.00 0.00 0.00 47 1010.0
20260503185038 18 146 1.6 11.3 0.00 0.00 0.00 50 1010.0
20260503184549 18 170 3.2 14.5 0.00 0.00 0.00 47 1010.1
20260503184038 18 221 3.2 14.5 0.00 0.00 0.00 46 1010.1
20260503183537 18 171 1.6 12.9 0.00 0.00 0.00 48 1010.2
20260503183050 17 221 3.2 12.9 0.00 0.00 0.00 49 1010.3
20260503182540 17 183 3.2 11.3 0.00 0.00 0.00 51 1010.4
20260503182043 17 178 3.2 11.3 0.00 0.00 0.00 52 1010.7
20260503181618 17 246 1.6 11.3 0.00 0.00 0.00 53 1010.7
20260503181039 16 165 1.6 12.9 0.00 0.00 0.00 53 1010.8
20260503180539 16 178 3.2 12.9 0.00 0.00 0.00 52 1010.7
20260503180109 16 144 1.6 11.3 0.00 0.00 0.00 52 1011.0
20260503175539 16 178 1.6 9.7 0.00 0.00 0.00 55 1011.4
20260503175039 16 178 3.2 12.9 0.00 0.00 0.00 52 1011.6
20260503174554 16 173 3.2 12.9 0.00 0.00 0.00 53 1011.8
20260503174038 16 175 3.2 12.9 0.00 0.00 0.00 51 1012.1
20260503173538 16 178 1.6 11.3 0.00 0.00 0.00 52 1012.5
20260503173058 16 238 1.6 11.3 0.00 0.00 0.00 53 1012.6
20260503172537 16 0 1.6 11.3 0.00 0.00 0.00 55 1012.6
20260503172042 15 0 1.6 11.3 0.00 0.00 0.00 56 1012.8
20260503171549 15 178 1.6 8.0 0.00 0.00 0.00 56 1012.8
20260503171039 15 196 1.6 9.7 0.00 0.00 0.00 55 1013.3
20260503170540 15 178 1.6 9.7 0.00 0.00 0.00 54 1013.4
20260503150539 12 178 1.6 6.4 0.00 0.00 0.00 65 1015.1
20260503131039 8 178 0.0 6.4 0.00 0.00 0.00 76 1016.3
20260503130538 8 0 1.6 6.4 0.00 0.00 0.00 76 1016.6